GW3202 Weather Reports


Display with metric or nautical units.
time (UTC)temp
F
wind
direction
speed
MPH
gust
MPH
rain 1hr
in
rain 24hr
in
rain mn
in
humidity
%
barometer
mb
20260903220003 72 144 4.0 20.0 0.00 0.00 0.00 80 1019.5
20260903215004 73 98 7.0 20.0 0.00 0.00 0.00 78 1019.9
20260903214003 71 94 1.0 8.0 0.00 0.00 0.00 71 1019.9
20260903213004 71 313 3.0 8.0 0.00 0.00 0.00 73 1019.7
20260903212003 71 294 3.0 14.0 0.00 0.00 0.00 73 1019.8
20260903211004 74 270 4.0 13.0 0.00 0.00 0.00 69 1019.9
20260903210003 75 273 6.0 21.0 0.00 0.00 0.00 68 1019.8
20260903205004 79 265 2.0 12.0 0.00 0.00 0.00 60 1019.5
20260903204004 79 121 3.0 10.0 0.00 0.00 0.00 62 1019.6
20260903203003 79 130 3.0 13.0 0.00 0.00 0.00 60 1019.5
20260903202003 82 161 1.0 7.0 0.00 0.00 0.00 56 1019.5
20260903201003 79 167 5.0 13.0 0.00 0.00 0.00 55 1019.6
20260903200003 81 201 5.0 16.0 0.00 0.00 0.00 52 1019.8
20260903195003 81 96 1.0 16.0 0.00 0.00 0.00 54 1019.9
20260903194003 81 204 4.0 13.0 0.00 0.00 0.00 52 1020.2
20260903193004 80 175 5.0 13.0 0.00 0.00 0.00 54 1020.4
20260903192003 78 177 5.0 12.0 0.00 0.00 0.00 56 1020.3
20260903190004 80 168 3.0 10.0 0.00 0.00 0.00 57 1020.5
20260903185006 79 165 4.0 10.0 0.00 0.00 0.00 56 1020.9
20260903184004 78 189 3.0 12.0 0.00 0.00 0.00 58 1021.1
20260903183004 79 165 2.0 7.0 0.00 0.00 0.00 58 1021.2
20260903182013 80 162 3.0 9.0 0.00 0.00 0.00 57 1021.4
20260903181005 78 172 3.0 9.0 0.00 0.00 0.00 59 1021.5
20260903180003 77 79 3.0 8.0 0.00 0.00 0.00 60 1021.4
20260903175003 77 278 2.0 5.0 0.00 0.00 0.00 58 1021.6
20260903173003 76 152 3.0 6.0 0.00 0.00 0.00 62 1021.8
20260903172003 76 295 5.0 6.0 0.00 0.00 0.00 61 1022.0
20260903171003 74 350 3.0 5.0 0.00 0.00 0.00 62 1022.2
20260903170004 74 55 2.0 5.0 0.00 0.00 0.00 64 1022.4
20260903165004 74 11 1.0 5.0 0.00 0.00 0.00 65 1022.3
20260903162004 72 262 2.0 6.0 0.00 0.00 0.00 71 1022.5
20260903161003 73 30 1.0 3.0 0.00 0.00 0.00 66 1022.4
20260903160003 72 90 1.0 5.0 0.00 0.00 0.00 67 1022.4
20260903155003 72 114 2.0 6.0 0.00 0.00 0.00 69 1022.5
20260903154003 69 52 1.0 6.0 0.00 0.00 0.00 73 1022.6
20260903153003 69 141 0.0 6.0 0.00 0.00 0.00 76 1022.5
20260903151004 69 61 1.0 5.0 0.00 0.00 0.00 77 1022.6
20260903150004 70 65 3.0 5.0 0.00 0.00 0.00 78 1022.3
20260903145004 71 67 2.0 6.0 0.00 0.00 0.00 78 1022.4
20260903144004 70 69 2.0 6.0 0.00 0.00 0.00 78 1022.3
20260903142008 66 328 1.0 3.0 0.00 0.00 0.00 85 1022.4
20260903141005 67 20 1.0 3.0 0.00 0.00 0.00 86 1022.1
20260903140004 67 298 0.0 2.0 0.00 0.00 0.00 85 1022.1
20260903134003 66 80 1.0 3.0 0.00 0.00 0.00 86 1022.1
20260903132005 66 105 1.0 2.0 0.00 0.00 0.00 89 1022.0
20260903130003 66 43 1.0 2.0 0.00 0.00 0.00 90 1021.8
20260903125003 66 73 1.0 3.0 0.00 0.00 0.00 90 1021.7
20260903124004 66 56 2.0 5.0 0.00 0.00 0.00 88 1021.8
20260903123004 66 358 2.0 3.0 0.00 0.00 0.00 88 1021.5
20260903122004 67 3 1.0 2.0 0.00 0.00 0.00 88 1021.5
20260903121004 67 51 0.0 2.0 0.00 0.00 0.00 86 1021.4
20260903120004 67 82 1.0 2.0 0.00 0.00 0.00 85 1021.4
20260903115003 67 67 1.0 3.0 0.00 0.00 0.00 84 1021.3
20260903114003 67 94 2.0 3.0 0.00 0.00 0.00 85 1021.5
20260903113004 67 101 1.0 3.0 0.00 0.00 0.00 85 1021.5
20260903112004 67 128 2.0 3.0 0.00 0.00 0.00 85 1021.5
20260903111003 67 88 1.0 5.0 0.00 0.00 0.00 85 1021.5
20260903110004 67 71 3.0 5.0 0.00 0.00 0.00 85 1021.3
20260903105003 67 70 3.0 5.0 0.00 0.00 0.00 85 1021.4
20260903104005 67 106 1.0 3.0 0.00 0.00 0.00 86 1021.4
20260903103003 67 106 2.0 3.0 0.00 0.00 0.00 87 1021.6
20260903102004 67 114 1.0 2.0 0.00 0.00 0.00 88 1021.5
20260903101003 67 71 0.0 5.0 0.00 0.00 0.00 88 1021.6
20260903095004 67 342 0.0 2.0 0.00 0.00 0.00 90 1021.6
20260903094005 67 9 1.0 3.0 0.00 0.00 0.00 89 1021.8
20260903093004 67 52 2.0 2.0 0.00 0.00 0.00 87 1021.7
20260903092004 67 35 1.0 3.0 0.00 0.00 0.00 87 1021.5
20260903091003 67 13 1.0 3.0 0.00 0.00 0.00 87 1021.7
20260903090005 67 37 1.0 3.0 0.00 0.00 0.00 87 1021.6
20260903085004 67 77 2.0 5.0 0.00 0.00 0.00 87 1021.7
20260903084004 67 84 2.0 5.0 0.00 0.00 0.00 87 1021.7
20260903082004 68 82 1.0 5.0 0.00 0.00 0.00 86 1021.9
20260903081004 68 103 2.0 5.0 0.00 0.00 0.00 87 1022.0
20260903080004 68 89 3.0 5.0 0.00 0.00 0.00 86 1022.0
20260903075004 68 61 2.0 5.0 0.00 0.00 0.00 86 1022.2
20260903072004 68 73 1.0 6.0 0.00 0.00 0.00 84 1022.2
20260903071005 69 106 2.0 5.0 0.00 0.00 0.00 84 1022.2
20260903070003 69 101 2.0 6.0 0.00 0.00 0.00 83 1022.4
20260903065004 69 45 3.0 6.0 0.00 0.00 0.00 84 1022.4
20260903064004 69 93 1.0 5.0 0.00 0.00 0.00 84 1022.4
20260903062004 69 135 2.0 6.0 0.00 0.00 0.00 84 1022.7
20260903061004 69 101 2.0 5.0 0.00 0.00 0.00 84 1022.5
20260903060004 69 67 1.0 5.0 0.00 0.00 0.00 84 1022.5
20260903054004 69 113 1.0 5.0 0.00 0.00 0.00 84 1022.4
20260903053004 69 129 2.0 5.0 0.00 0.00 0.00 85 1022.5
20260903051004 69 86 3.0 8.0 0.00 0.00 0.00 85 1022.4
20260903050004 69 90 1.0 5.0 0.00 0.00 0.00 84 1022.6
20260903045005 69 93 2.0 3.0 0.00 0.00 0.00 84 1022.6
20260903044005 70 78 0.0 3.0 0.00 0.00 0.00 84 1022.6
20260903042004 70 85 2.0 6.0 0.00 0.00 0.00 84 1022.6
20260903041004 70 346 3.0 7.0 0.00 0.00 0.00 84 1022.6
20260903040004 70 99 0.0 3.0 0.00 0.00 0.00 82 1022.5
20260903035004 70 72 2.0 3.0 0.00 0.00 0.00 83 1022.4
20260903034005 71 108 1.0 2.0 0.00 0.00 0.00 83 1022.2
20260903033004 71 114 1.0 3.0 0.00 0.00 0.00 82 1022.3
20260903030005 71 138 1.0 3.0 0.00 0.00 0.00 81 1021.9
20260903024004 71 90 0.0 2.0 0.00 0.00 0.00 80 1021.9
20260903023004 71 101 0.0 3.0 0.00 0.00 0.00 80 1021.9
20260903022004 71 103 0.0 3.0 0.00 0.00 0.00 80 1021.7
20260903021006 71 84 0.0 5.0 0.00 0.00 0.00 80 1021.7
20260903020004 71 120 5.0 6.0 0.00 0.00 0.00 79 1021.5
20260903015004 72 174 1.0 5.0 0.00 0.00 0.00 78 1021.5
20260903014004 72 127 2.0 5.0 0.00 0.00 0.00 78 1021.3
20260903013004 72 91 1.0 3.0 0.00 0.00 0.00 77 1021.3
20260903012004 73 125 0.0 3.0 0.00 0.00 0.00 77 1021.2
20260903011005 73 252 2.0 5.0 0.00 0.00 0.00 76 1021.1
20260903010006 73 130 1.0 7.0 0.00 0.00 0.00 76 1020.9
20260903005004 73 123 2.0 7.0 0.00 0.00 0.00 76 1021.1
20260903003004 73 233 2.0 7.0 0.00 0.00 0.00 75 1021.0
20260903002004 73 135 3.0 7.0 0.00 0.00 0.00 74 1021.1
20260903001006 74 104 3.0 8.0 0.00 0.00 0.00 74 1021.0
20260903000005 74 126 3.0 6.0 0.00 0.00 0.00 74 1020.9
20260902235004 74 180 2.0 12.0 0.00 0.00 0.00 74 1020.9
20260902234004 74 157 6.0 12.0 0.00 0.00 0.00 74 1021.0
20260902233004 74 128 5.0 9.0 0.00 0.00 0.00 72 1020.9
20260902232004 74 183 2.0 12.0 0.00 0.00 0.00 72 1021.0
20260902230004 75 163 3.0 14.0 0.00 0.00 0.00 68 1020.9
20260902224004 76 163 3.0 13.0 0.00 0.00 0.00 67 1020.8
20260902223004 76 162 3.0 9.0 0.00 0.00 0.00 66 1020.7
20260902222004 77 155 5.0 13.0 0.00 0.00 0.00 66 1020.5
20260902221004 76 208 7.0 13.0 0.00 0.00 0.00 65 1020.7